EZY85T LHBP-EPKK

Flight info

Callsign EZY85T
Flight time 0h 34m
Altitude 27000
Route LHBP/13L LITK2B LITKU Y301 KALIF DCT MEBAN MEBA5G EPKK/BAWZI I25
Aircraft A320/M-SDE3FGHIRWY/LB1

Departure

Time 2026-05-04 20:33
Airport Budapest Liszt Ferenc International Airport (LHBP)

Arrival

Time 2026-05-04 21:07
Airport Kraków John Paul II International Airport (EPKK)
Time Latitude Longitude Altitude Speed Heading
2026-05-04 20:25 47.43244 19.25742 465 ft 0 kts 42°
2026-05-04 20:26 47.43243 19.25742 465 ft 1 kts 42°
2026-05-04 20:27 47.43232 19.25727 465 ft 2 kts 41°
2026-05-04 20:27 47.43221 19.25712 464 ft 2 kts 42°
2026-05-04 20:27 47.43210 19.25698 464 ft 1 kts 41°
2026-05-04 20:27 47.43203 19.25688 464 ft 2 kts 25°
2026-05-04 20:28 47.43189 19.25686 463 ft 2 kts 341°
2026-05-04 20:28 47.43180 19.25693 463 ft 0 kts 315°
2026-05-04 20:28 47.43179 19.25694 463 ft 0 kts 311°
2026-05-04 20:30 47.43182 19.25689 463 ft 4 kts 311°
2026-05-04 20:30 47.43241 19.25593 463 ft 14 kts 313°
2026-05-04 20:30 47.43310 19.25484 464 ft 14 kts 313°
2026-05-04 20:31 47.43377 19.25374 464 ft 15 kts 311°
2026-05-04 20:31 47.43459 19.25331 464 ft 13 kts 32°
2026-05-04 20:31 47.43642 19.25568 471 ft 65 kts 38°
2026-05-04 20:31 47.43871 19.25882 479 ft 35 kts 41°
2026-05-04 20:32 47.43965 19.26118 479 ft 25 kts 117°
2026-05-04 20:32 47.44032 19.26316 478 ft 23 kts 48°
2026-05-04 20:32 47.44092 19.26471 479 ft 12 kts 94°
2026-05-04 20:32 47.43985 19.26657 475 ft 57 kts 132°
2026-05-04 20:33 47.43511 19.27423 454 ft 141 kts 132°
2026-05-04 20:33 47.42733 19.28689 768 ft 180 kts 132°
2026-05-04 20:33 47.41888 19.30072 1589 ft 190 kts 134°
2026-05-04 20:33 47.41012 19.31512 2585 ft 196 kts 133°
2026-05-04 20:34 47.40276 19.33237 3402 ft 210 kts 120°
2026-05-04 20:34 47.39648 19.35274 3941 ft 229 kts 116°
2026-05-04 20:34 47.38989 19.37460 4563 ft 242 kts 117°
2026-05-04 20:34 47.38334 19.39804 5295 ft 255 kts 104°
2026-05-04 20:35 47.38380 19.42472 5830 ft 277 kts 73°
2026-05-04 20:35 47.39447 19.44832 6598 ft 287 kts 39°
2026-05-04 20:35 47.41253 19.46020 7475 ft 289 kts
2026-05-04 20:35 47.43235 19.46365 8324 ft 292 kts
2026-05-04 20:36 47.45258 19.46651 9133 ft 296 kts
2026-05-04 20:36 47.47306 19.46948 9945 ft 300 kts
2026-05-04 20:36 47.49407 19.47272 10670 ft 307 kts
2026-05-04 20:36 47.51570 19.47619 11098 ft 324 kts
2026-05-04 20:37 47.53863 19.47998 11657 ft 335 kts
2026-05-04 20:37 47.56171 19.48385 12379 ft 339 kts
2026-05-04 20:37 47.58498 19.48776 13138 ft 341 kts
2026-05-04 20:37 47.60882 19.49180 13871 ft 344 kts
2026-05-04 20:38 47.63250 19.49583 14590 ft 347 kts
2026-05-04 20:38 47.65627 19.49987 15305 ft 348 kts
2026-05-04 20:38 47.68044 19.50400 16013 ft 350 kts
2026-05-04 20:38 47.70464 19.50813 16717 ft 352 kts
2026-05-04 20:39 47.72883 19.51226 17398 ft 354 kts
2026-05-04 20:39 47.75331 19.51645 18047 ft 356 kts
2026-05-04 20:39 47.77773 19.52061 18658 ft 357 kts
2026-05-04 20:39 47.80260 19.52488 19248 ft 360 kts
2026-05-04 20:40 47.82746 19.52913 19788 ft 363 kts
2026-05-04 20:40 47.85247 19.53340 20344 ft 366 kts
2026-05-04 20:40 47.87786 19.53777 20848 ft 369 kts
2026-05-04 20:40 47.90328 19.54213 21032 ft 371 kts
2026-05-04 20:41 47.92129 19.54523 21032 ft 370 kts
2026-05-04 20:41 47.93941 19.54835 21034 ft 370 kts
2026-05-04 20:41 47.96517 19.55279 21042 ft 369 kts
2026-05-04 20:41 47.99034 19.55713 21045 ft 369 kts
2026-05-04 20:42 48.01611 19.56157 21054 ft 370 kts
2026-05-04 20:42 48.04147 19.56595 21056 ft 370 kts
2026-05-04 20:42 48.06685 19.57033 21048 ft 370 kts
2026-05-04 20:42 48.09208 19.57467 21046 ft 360 kts
2026-05-04 20:43 48.09521 19.57521 21047 ft 358 kts
2026-05-04 20:43 48.11563 19.57875 21042 ft 344 kts
2026-05-04 20:43 48.12170 19.57979 21014 ft 340 kts
2026-05-04 20:43 48.14480 19.58373 21063 ft 338 kts
2026-05-04 20:44 48.16894 19.58793 21077 ft 357 kts
2026-05-04 20:44 48.19386 19.59231 21075 ft 367 kts
2026-05-04 20:44 48.21926 19.59572 21076 ft 369 kts
2026-05-04 20:44 48.24486 19.59666 21077 ft 370 kts 358°
2026-05-04 20:45 48.27050 19.59522 21077 ft 370 kts 355°
2026-05-04 20:45 48.29605 19.59282 21080 ft 370 kts 355°
2026-05-04 20:45 48.32205 19.59020 21068 ft 370 kts 355°
2026-05-04 20:45 48.34761 19.58763 21056 ft 370 kts 355°
2026-05-04 20:46 48.37333 19.58507 21058 ft 370 kts 355°
2026-05-04 20:46 48.39882 19.58257 21060 ft 370 kts 355°
2026-05-04 20:46 48.42435 19.58008 21061 ft 370 kts 355°
2026-05-04 20:46 48.45001 19.57759 21059 ft 370 kts 355°
2026-05-04 20:47 48.47590 19.57507 21061 ft 370 kts 355°
2026-05-04 20:47 48.50147 19.57327 21063 ft 371 kts 358°
2026-05-04 20:47 48.52743 19.57379 21063 ft 372 kts
2026-05-04 20:47 48.55313 19.57560 21065 ft 372 kts
2026-05-04 20:48 48.57890 19.57765 21067 ft 372 kts
2026-05-04 20:48 48.60484 19.57975 21069 ft 373 kts
2026-05-04 20:48 48.63071 19.58181 21071 ft 373 kts
2026-05-04 20:48 48.65628 19.58382 21074 ft 373 kts
2026-05-04 20:49 48.67508 19.58531 21079 ft 373 kts
2026-05-04 20:49 48.70069 19.58732 21079 ft 373 kts
2026-05-04 20:50 49.36129 19.65621 21052 ft 374 kts 357°
2026-05-04 20:50 49.38718 19.65581 21043 ft 373 kts 358°
2026-05-04 20:50 49.41248 19.65228 13513 ft 352 kts 352°
2026-05-04 20:50 49.43607 19.65201 14649 ft 334 kts
2026-05-04 20:51 49.45806 19.66154 14955 ft 324 kts 25°
2026-05-04 20:51 49.47642 19.68109 14440 ft 330 kts 43°
2026-05-04 20:51 49.49291 19.70646 13676 ft 340 kts 46°
2026-05-04 20:51 49.50928 19.73338 12972 ft 347 kts 47°
2026-05-04 20:52 49.52569 19.76059 12479 ft 346 kts 47°
2026-05-04 20:52 49.54197 19.78749 12036 ft 343 kts 46°
2026-05-04 20:52 49.55809 19.81398 11592 ft 341 kts 46°
2026-05-04 20:52 49.57435 19.84065 11130 ft 339 kts 46°
2026-05-04 20:53 49.59038 19.86689 10676 ft 337 kts 46°
2026-05-04 20:53 49.60609 19.89261 10441 ft 327 kts 46°
2026-05-04 20:53 49.62133 19.91759 10254 ft 316 kts 46°
2026-05-04 20:53 49.63631 19.94217 10077 ft 307 kts 46°
2026-05-04 20:54 49.65094 19.96618 10039 ft 307 kts 46°
2026-05-04 20:54 49.66547 19.99006 10025 ft 307 kts 46°
2026-05-04 20:54 49.68011 20.01414 10023 ft 307 kts 46°
2026-05-04 20:54 49.69461 20.03801 10021 ft 306 kts 46°
2026-05-04 20:55 49.74240 20.11338 10096 ft 307 kts 46°
2026-05-04 20:55 49.75652 20.13763 9964 ft 302 kts 47°
2026-05-04 20:55 49.77241 20.15876 9536 ft 301 kts 24°
2026-05-04 20:55 49.79239 20.16508 9094 ft 295 kts 351°
2026-05-04 20:56 49.95682 20.01993 9397 ft 258 kts 323°
2026-05-04 20:56 49.96964 20.00546 8146 ft 225 kts 329°
2026-05-04 20:56 49.98326 19.99022 8640 ft 247 kts 319°
2026-05-04 20:56 49.99977 19.97947 7760 ft 279 kts 354°
2026-05-04 20:57 50.01888 19.98609 7268 ft 287 kts 30°
2026-05-04 20:57 50.03223 20.00782 7081 ft 278 kts 65°
2026-05-04 20:57 50.03566 20.03618 7024 ft 261 kts 96°
2026-05-04 20:57 50.02664 20.06188 7102 ft 254 kts 99°
2026-05-04 20:58 50.02629 20.08960 7004 ft 259 kts 82°
2026-05-04 20:58 50.03038 20.11720 6335 ft 276 kts 75°
2026-05-04 20:58 50.03567 20.14664 5522 ft 293 kts 76°
2026-05-04 20:58 50.04078 20.17782 4703 ft 301 kts 78°
2026-05-04 20:59 50.04558 20.20919 3886 ft 300 kts 75°
2026-05-04 20:59 50.05544 20.23680 3253 ft 290 kts 43°
2026-05-04 20:59 50.07231 20.25076 2968 ft 268 kts
2026-05-04 20:59 50.08944 20.24761 2953 ft 239 kts 335°
2026-05-04 21:00 50.10460 20.23690 2975 ft 236 kts 335°
2026-05-04 21:00 50.11938 20.22695 2995 ft 222 kts 328°
2026-05-04 21:00 50.12949 20.21095 2995 ft 195 kts 293°
2026-05-04 21:00 50.13197 20.19131 2978 ft 185 kts 268°
2026-05-04 21:01 50.13077 20.17138 2980 ft 184 kts 260°
2026-05-04 21:01 50.12880 20.15159 2973 ft 184 kts 259°
2026-05-04 21:01 50.12653 20.13213 2971 ft 184 kts 257°
2026-05-04 21:01 50.12398 20.11244 2971 ft 184 kts 256°
2026-05-04 21:02 50.12140 20.09359 2972 ft 167 kts 256°
2026-05-04 21:02 50.11906 20.07697 2939 ft 150 kts 255°
2026-05-04 21:02 50.11681 20.06131 2962 ft 149 kts 255°
2026-05-04 21:02 50.11452 20.04548 2978 ft 149 kts 255°
2026-05-04 21:03 50.11225 20.02980 2993 ft 148 kts 254°
2026-05-04 21:03 50.11002 20.01425 2990 ft 148 kts 254°
2026-05-04 21:03 50.10778 19.99858 2989 ft 147 kts 254°
2026-05-04 21:03 50.10555 19.98296 2990 ft 147 kts 254°
2026-05-04 21:04 50.10340 19.96773 2915 ft 139 kts 254°
2026-05-04 21:04 50.10139 19.95347 2743 ft 134 kts 254°
2026-05-04 21:04 50.09939 19.93936 2565 ft 133 kts 254°
2026-05-04 21:04 50.09740 19.92526 2389 ft 133 kts 255°
2026-05-04 21:05 50.09541 19.91119 2214 ft 133 kts 255°
2026-05-04 21:05 50.09343 19.89712 2039 ft 133 kts 255°
2026-05-04 21:05 50.09149 19.88323 1868 ft 132 kts 255°
2026-05-04 21:05 50.08953 19.86927 1693 ft 131 kts 255°
2026-05-04 21:06 50.08759 19.85541 1523 ft 132 kts 255°
2026-05-04 21:06 50.08563 19.84140 1346 ft 131 kts 256°
2026-05-04 21:06 50.08369 19.82757 1173 ft 131 kts 256°
2026-05-04 21:06 50.08175 19.81368 1003 ft 134 kts 256°
2026-05-04 21:07 50.07977 19.79964 825 ft 129 kts 257°
2026-05-04 21:07 50.07808 19.78745 801 ft 93 kts 258°
2026-05-04 21:07 50.07708 19.78030 800 ft 46 kts 258°
2026-05-04 21:07 50.07641 19.77550 800 ft 43 kts 259°
2026-05-04 21:08 50.07578 19.77103 801 ft 41 kts 256°
2026-05-04 21:08 50.07499 19.76852 800 ft 20 kts 182°
2026-05-04 21:08 50.07358 19.76893 800 ft 20 kts 167°
2026-05-04 21:08 50.07323 19.77076 800 ft 26 kts 79°
2026-05-04 21:09 50.07411 19.77700 800 ft 68 kts 78°
2026-05-04 21:09 50.07507 19.78392 800 ft 59 kts 78°
2026-05-04 21:09 50.07585 19.78952 800 ft 37 kts 78°
2026-05-04 21:09 50.07637 19.79322 800 ft 33 kts 78°
2026-05-04 21:10 50.07681 19.79633 800 ft 14 kts 79°
2026-05-04 21:10 50.07615 19.79706 800 ft 12 kts 167°
2026-05-04 21:10 50.07584 19.79672 800 ft 5 kts 248°